• Join FlightAware (Why Join?)
  • Login
  • US Flag GB Flag 
21:56 EDT


 

Airport Tracker/Info


-or-


 

Live Flight TrackerFlight Track Log ✈ UAL4108 ✈ 21-Apr-2013 ✈ KLIT - KIAH

Flight Track Log - Related Links

Times and Time Zones

All times are in EDT time to prevent confusion due to time zone crossing. See the UAL4108 flight status page for this flight to view local times or setup timezone preferences in your user account.

Time Position Orientation Groundspeed Altitude Reporting Facility
EDT Latitude Longitude Course Direction KTS MPH feet Rate Location/Type
20:07 34.7350 -92.1994 202° Southwest 141 162 800  Level Memphis Center
20:08 34.7397 -92.1717 78° East 169 194 1,600 1,860 Climbing Memphis Center
20:09 34.7111 -92.1231 126° Southeast 241 277 3,900 2,640 Climbing Memphis Center
20:10 34.6481 -92.1697 211° Southwest 265 305 7,200 2,700 Climbing Memphis Center
20:10 34.6183 -92.1919 212° Southwest 266 306 8,400 2,220 Climbing Memphis Center
20:11 34.4116 -92.4459 190° South  Level Estimated
20:11 34.5431 -92.2078 190° South 260 299 10,900  Level Memphis Center
20:12 34.3321 -92.5009 193° South  Level Estimated
20:12 34.4572 -92.2236 189° South 286 329 12,000  Level Memphis Center
20:13 34.2612 -92.5499 202° Southwest  Level Estimated
20:13 34.3611 -92.2392 188° South 325 374 13,500  Level Memphis Center
20:14 34.2583 -92.2619 190° South 359 413 15,200 1,620 Climbing Memphis Center
20:15 34.1581 -92.2800 188° South 371 427 16,800 1,620 Climbing Memphis Center
20:16 34.0617 -92.3028 191° South 371 427 18,500 1,800 Climbing Memphis Center
20:17 33.9550 -92.3206 188° South 371 427 20,400 1,680 Climbing Memphis Center
20:18 33.8544 -92.3383 188° South 371 427 21,900 900 Climbing Memphis Center
20:19 33.7647 -92.3542 188° South 381 438 22,000  Climbing Fort Worth Center
20:20 33.6486 -92.3733 188° South 399 459 22,000  Level Fort Worth Center
20:21 33.5306 -92.3975 190° South 425 489 22,000  Level Fort Worth Center
20:22 33.4144 -92.4167 188° South 438 504 22,000  Level Fort Worth Center
20:23 33.2922 -92.4383 188° South 438 504 22,000  Level Fort Worth Center
20:24 33.1700 -92.4628 190° South 444 511 22,000  Level Fort Worth Center
20:25 33.0478 -92.4819 187° South 444 511 22,000  Level Fort Worth Center
20:26 32.9275 -92.5033 188° South 444 511 22,000  Level Fort Worth Center
20:27 32.8053 -92.5247 188° South 444 511 22,000  Level Fort Worth Center
20:29 32.5578 -92.5719 189° South 442 509 22,000  Level Houston Center
20:30 32.4356 -92.5958 189° South 442 509 22,000  Level Houston Center
20:31 32.3156 -92.6161 188° South 436 502 22,000  Level Houston Center
20:32 32.1978 -92.6375 189° South 429 494 22,000  Level Houston Center
20:33 32.0800 -92.6581 188° South 427 491 22,000  Level Houston Center
20:34 31.9667 -92.6892 193° South 420 483 22,000  Level Houston Center
20:35 31.8608 -92.7861 218° Southwest 403 464 22,000  Level Houston Center
20:36 31.7756 -92.8694 220° Southwest 402 463 22,000  Level Houston Center
20:37 31.6906 -92.9531 220° Southwest 402 463 22,000  Level Houston Center
20:39 31.6022 -93.0369 219° Southwest 407 468 22,000  Level Houston Center
20:40 31.5153 -93.1214 220° Southwest 409 471 22,000  Level Houston Center
20:41 31.4100 -93.2206 219° Southwest 408 470 22,000  Level Houston Center
20:42 31.3225 -93.3044 219° Southwest 408 470 22,000  Level Houston Center
20:43 31.2406 -93.3819 219° Southwest 409 471 22,000  Level Houston Center
20:44 31.1528 -93.4653 219° Southwest 409 471 22,000  Level Houston Center
20:45 31.0486 -93.5647 219° Southwest 406 467 22,000  Level Houston Center
20:46 30.9614 -93.6481 219° Southwest 406 467 22,000  Level Houston Center
20:47 30.8736 -93.7308 219° Southwest 409 471 22,000  Level Houston Center
20:48 30.7858 -93.8136 219° Southwest 409 471 22,000  Level Houston Center
20:49 30.6975 -93.8967 219° Southwest 411 473 22,000 -540 Level Houston Center
20:50 30.6119 -93.9783 219° Southwest 403 464 21,000 -1,380 Descending Houston Center
20:51 30.5136 -94.0703 219° Southwest 384 442 19,200 -1,800 Descending Houston Center
20:52 30.4300 -94.1469 218° Southwest 385 443 17,400 -1,860 Descending Houston Center
20:53 30.3425 -94.2292 219° Southwest 355 409 15,200 -1,920 Descending Houston Center
20:54 30.2744 -94.2925 219° Southwest 364 419 13,500 -1,740 Descending Houston Center
20:55 30.2011 -94.3764 225° Southwest 369 425 11,900 -840 Descending Houston Center
20:56 30.1775 -94.4858 256° West 353 406 11,900 -120 Level Houston Center
20:57 30.1586 -94.5939 259° West 347 399 11,700 -840 Descending Houston Center
20:58 30.1364 -94.7256 259° West 349 402 10,300 -960 Descending Houston Center
20:59 30.1197 -94.8169 258° West 294 338 9,800 -1,080 Descending Houston Center
21:00 30.1069 -94.9000 260° West 267 307 8,100 -1,740 Descending Houston Center
21:01 30.1056 -94.9822 269° West 257 296 6,300 -1,020 Descending Houston Center
21:02 30.1067 -95.0725 271° West 254 292 6,100 -120 Descending Houston Center
21:03 30.1064 -95.1594 270° West 265 305 6,100 -60 Level Houston Center
21:04 30.1078 -95.2306 271° West 262 302 6,000 -60 Descending Houston Center
21:05 30.1072 -95.3261 270° West 251 289 6,000 -420 Level Houston Center
21:06 30.1061 -95.4081 269° West 258 297 5,200 -1,200 Descending Houston Center
21:07 30.1069 -95.4853 271° West 269 310 3,700 -1,140 Descending Houston Center
21:08 30.0578 -95.5183 210° Southwest 230 265 2,900 -540 Descending Houston Center
21:09 30.0183 -95.4814 141° Southeast 159 183 2,600 -360 Descending Houston Center